Flag for Portugal Weather past 2 weeks in Viana do Castelo, Portugal

Now
46 °F

Sprinkles. Partly sunny.


Feels Like: 42 °F
Forecast: 46 / 53 °F
Wind: 8 mph from Northwest

Location: Porto / Pedras Rubras

Current Time: Feb 1, 2015 at 1:43:08 PM

Latest Report: Feb 1, 2015 at 1:00 PM


Visibility: N/A

Pressure: 30.18 "Hg

Humidity: 87%

Dew point: 43 °F

Location of Viana do CasteloLocation

Historic Weather in Viana do Castelo — Graph

°F

Viana do Castelo temperature yesterday

Maximum temperature yesterday: 55 °F (at 12:00 AM)
Minimum temperature yesterday: 41 °F (at 7:00 PM)
Average temperature yesterday: 49 °F

Past Weeks' High & Low Weather Summary

 TemperatureHumidityPressure
High59 °F (Jan 24, 3:00 PM)100% (Jan 18, 10:30 AM)30.48 "Hg (Jan 18, 10:30 AM)
Low34 °F (Jan 26, 5:00 AM)55% (Jan 27, 12:30 PM)29.59 "Hg (Jan 31, 12:30 AM)
Average48 °F89%30.15 "Hg
* Reported Jan 17 12:00 Noon — Feb 1 12:00 Noon, Viana do Castelo, Weather by CustomWeather, © 2014

Note: Actual official high and low records may vary slightly from our data, if they occured in-between our weather recording intervals... More about our weather records

Advertising

Viana do Castelo weather history for previous 24 hours

 ConditionsComfort  
Time TempWeatherWind HumidityBarometerVisibility
12:00 PM
Feb 1
48 °FPassing clouds.6 mph82%30.18 "HgN/A
11:30 AM48 °FScattered clouds.7 mph76%30.21 "HgN/A
11:00 AM46 °FSprinkles. Partly sunny.7 mph82%30.21 "HgN/A
10:30 AM46 °FScattered clouds.5 mph87%30.18 "HgN/A
10:00 AM46 °FScattered clouds.1 mph87%30.18 "HgN/A
9:30 AM45 °FScattered clouds.3 mph93%30.18 "HgN/A
9:00 AM41 °FScattered clouds.5 mph100%30.18 "HgN/A
8:30 AM41 °FScattered clouds.1 mph100%30.15 "HgN/A
8:00 AM37 °FPassing clouds.No wind100%30.15 "HgN/A
7:30 AM39 °FPassing clouds.2 mph100%30.12 "HgN/A
7:00 AM37 °FSprinkles. Passing clouds.5 mph100%30.12 "HgN/A
6:30 AM39 °FPassing clouds.3 mph93%30.12 "HgN/A
6:00 AM39 °FPassing clouds.No wind93%30.12 "HgN/A
5:30 AM39 °FSprinkles. Passing clouds.8 mph93%30.12 "HgN/A
5:00 AM37 °FPassing clouds.No wind93%30.09 "HgN/A
4:30 AM39 °FPassing clouds.2 mph93%30.09 "HgN/A
4:00 AM39 °FSprinkles. Passing clouds.6 mph93%30.09 "HgN/A
3:30 AM36 °FPassing clouds.1 mph100%30.09 "HgN/A
3:00 AM37 °FPassing clouds.3 mph100%30.09 "HgN/A
2:30 AM36 °FSprinkles. Passing clouds.3 mph100%30.09 "HgN/A
2:00 AM36 °FPassing clouds.3 mph93%30.09 "HgN/A
1:30 AM36 °FPassing clouds.1 mph100%30.09 "HgN/A
1:00 AM37 °FPassing clouds.1 mph93%30.09 "HgN/A
12:30 AM39 °FPassing clouds.2 mph93%30.09 "HgN/A
12:00 AM39 °FPassing clouds.2 mph87%30.09 "HgN/A
11:30 PM
Jan 31
41 °FPassing clouds.6 mph87%30.07 "HgN/A
11:00 PM43 °FPassing clouds.5 mph81%30.07 "HgN/A
10:30 PM43 °FPassing clouds.8 mph81%30.07 "HgN/A
10:00 PM43 °FSprinkles. Passing clouds.7 mph87%30.07 "HgN/A
9:30 PM45 °FSprinkles. Passing clouds.9 mph81%30.04 "HgN/A
8:30 PM43 °FPassing clouds.8 mph81%30.01 "HgN/A
8:00 PM43 °FPassing clouds.9 mph87%30.01 "HgN/A
7:30 PM41 °FPassing clouds.3 mph93%29.98 "HgN/A
7:00 PM41 °FPassing clouds.5 mph93%29.98 "HgN/A
6:30 PM45 °FSprinkles. Passing clouds.9 mph81%29.98 "Hg5 mi
6:00 PM45 °FPassing clouds.8 mph81%29.95 "HgN/A
5:30 PM46 °FSprinkles. Scattered clouds.13 mph76%29.95 "HgN/A
5:00 PM45 °FSprinkles. Scattered clouds.26 mph81%29.92 "Hg6 mi
4:30 PM46 °FScattered clouds.17 mph76%29.89 "HgN/A
4:00 PM48 °FSprinkles. Scattered clouds.23 mph76%29.89 "HgN/A
3:00 PM52 °FScattered clouds.24 mph62%29.86 "HgN/A
2:30 PM52 °FScattered clouds.15 mph72%29.86 "HgN/A
2:00 PM50 °FSprinkles. Broken clouds.12 mph76%29.83 "Hg5 mi
1:30 PM52 °FScattered clouds.17 mph67%29.83 "HgN/A
1:00 PM50 °FPassing clouds.18 mph76%29.83 "HgN/A
Weather by CustomWeather, © 2014

See weather overviewHow to use our weather pages